Time,TemperatureF,DewpointF,PressureIn,WindDirection,WindDirectionDegrees,WindSpeedMPH,WindSpeedGustMPH,Humidity,HourlyPrecipIn,Conditions,Clouds,dailyrainin,SolarRadiationWatts/m^2,SoftwareType,DateUTC
2013-08-23 00:02:00,73.3,67.8,29.97,SSE,160,0.0,3.0,83,0.00,CLR,,0.00,0.0,WeatherDisplay:10.37,2013-08-22 22:02:00,
2013-08-23 00:12:00,73.5,68.1,29.97,SSE,161,3.0,5.0,83,0.00,CLR,,0.00,0.0,WeatherDisplay:10.37,2013-08-22 22:12:00,
2013-08-23 00:22:00,73.9,68.1,29.97,SSE,159,1.0,6.0,82,0.00,CLR,,0.00,0.0,WeatherDisplay:10.37,2013-08-22 22:22:00,
2013-08-23 00:32:00,73.3,67.5,29.97,SSE,156,0.0,0.0,82,0.00,CLR,,0.00,0.0,WeatherDisplay:10.37,2013-08-22 22:32:00,
2013-08-23 00:42:00,73.1,67.6,29.97,SSE,156,0.0,0.0,83,0.00,CLR,,0.00,0.0,WeatherDisplay:10.37,2013-08-22 22:42:00,
2013-08-23 00:52:00,72.6,67.1,29.97,SSE,156,0.0,0.0,83,0.00,CLR,,0.00,0.0,WeatherDisplay:10.37,2013-08-22 22:52:00,
2013-08-23 01:02:00,72.8,67.7,29.97,SSE,164,5.0,6.0,84,0.00,CLR,,0.00,0.0,WeatherDisplay:10.37,2013-08-22 23:02:00,
2013-08-23 01:12:00,73.2,68.1,29.97,SSE,167,2.0,6.0,84,0.00,CLR,,0.00,0.0,WeatherDisplay:10.37,2013-08-22 23:12:00,
2013-08-23 01:22:00,73.0,67.5,29.97,South,169,3.0,5.0,83,0.00,CLR,,0.00,0.0,WeatherDisplay:10.37,2013-08-22 23:22:00,
2013-08-23 01:32:00,73.0,67.9,29.96,SSE,168,3.0,4.0,84,0.00,CLR,,0.00,0.0,WeatherDisplay:10.37,2013-08-22 23:32:00,
2013-08-23 01:42:00,72.8,67.7,29.96,SSE,165,3.0,5.0,84,0.00,CLR,,0.00,0.0,WeatherDisplay:10.37,2013-08-22 23:42:00,
2013-08-23 01:52:00,72.3,67.2,29.96,SSE,166,2.0,5.0,84,0.00,CLR,,0.00,0.0,WeatherDisplay:10.37,2013-08-22 23:52:00,
2013-08-23 02:02:00,72.0,67.2,29.96,SSE,164,3.0,5.0,85,0.00,CLR,,0.00,0.0,WeatherDisplay:10.37,2013-08-23 00:02:00,
2013-08-23 02:12:00,72.1,67.3,29.96,SSE,158,0.0,5.0,85,0.00,CLR,,0.00,0.0,WeatherDisplay:10.37,2013-08-23 00:12:00,
2013-08-23 02:32:00,72.1,67.3,29.96,South,169,1.0,5.0,85,0.00,CLR,,0.00,0.0,WeatherDisplay:10.37,2013-08-23 00:32:00,
2013-08-23 02:42:00,71.8,67.0,29.96,SSE,164,0.0,4.0,85,0.00,CLR,,0.00,0.0,WeatherDisplay:10.37,2013-08-23 00:42:00,
2013-08-23 02:52:00,71.6,66.8,29.96,SSE,166,0.0,0.0,85,0.00,CLR,,0.00,0.0,WeatherDisplay:10.37,2013-08-23 00:52:00,
2013-08-23 03:02:00,71.3,66.9,29.96,SSE,166,0.0,0.0,86,0.00,CLR,,0.00,0.0,WeatherDisplay:10.37,2013-08-23 01:02:00,
2013-08-23 03:12:00,71.1,66.7,29.96,SSE,166,0.0,0.0,86,0.00,CLR,,0.00,0.0,WeatherDisplay:10.37,2013-08-23 01:12:00,
2013-08-23 03:22:00,71.1,66.7,29.96,SSE,166,0.0,0.0,86,0.00,CLR,,0.00,0.0,WeatherDisplay:10.37,2013-08-23 01:22:00,
2013-08-23 03:32:00,70.9,66.5,29.96,SSE,166,0.0,0.0,86,0.00,CLR,,0.00,0.0,WeatherDisplay:10.37,2013-08-23 01:32:00,
2013-08-23 03:42:00,71.1,67.0,29.96,SSE,166,0.0,3.0,87,0.00,CLR,,0.00,0.0,WeatherDisplay:10.37,2013-08-23 01:42:00,
2013-08-23 03:52:00,71.1,67.0,29.96,SSE,166,0.0,0.0,87,0.00,CLR,,0.00,0.0,WeatherDisplay:10.37,2013-08-23 01:52:00,
2013-08-23 04:02:00,71.1,67.0,29.96,SSE,166,0.0,3.0,87,0.00,CLR,,0.00,0.0,WeatherDisplay:10.37,2013-08-23 02:02:00,
2013-08-23 04:12:00,70.8,66.7,29.96,SSE,166,0.0,0.0,87,0.00,CLR,,0.00,0.0,WeatherDisplay:10.37,2013-08-23 02:12:00,
2013-08-23 04:22:00,70.9,66.8,29.96,SSE,166,2.0,3.0,87,0.00,CLR,,0.00,0.0,WeatherDisplay:10.37,2013-08-23 02:22:00,
2013-08-23 04:32:00,70.9,66.8,29.96,SSE,166,2.0,3.0,87,0.00,CLR,,0.00,0.0,WeatherDisplay:10.37,2013-08-23 02:32:00,
2013-08-23 04:42:00,70.8,66.7,29.96,SSE,166,0.0,3.0,87,0.00,CLR,,0.00,0.0,WeatherDisplay:10.37,2013-08-23 02:42:00,
2013-08-23 04:52:00,70.4,66.0,29.96,SSE,166,0.0,0.0,86,0.00,CLR,,0.00,0.0,WeatherDisplay:10.37,2013-08-23 02:52:00,
2013-08-23 05:02:00,70.3,66.2,29.95,SSE,166,0.0,0.0,87,0.00,CLR,,0.00,0.0,WeatherDisplay:10.37,2013-08-23 03:02:00,
2013-08-23 05:12:00,70.3,65.9,29.96,SSE,166,0.0,0.0,86,0.00,CLR,,0.00,0.0,WeatherDisplay:10.37,2013-08-23 03:12:00,
2013-08-23 05:22:00,70.3,66.2,29.96,SSE,166,0.0,0.0,87,0.00,CLR,,0.00,0.0,WeatherDisplay:10.37,2013-08-23 03:22:00,
2013-08-23 05:32:00,70.3,66.2,29.96,SSE,166,0.0,0.0,87,0.00,CLR,,0.00,0.0,WeatherDisplay:10.37,2013-08-23 03:32:00,
2013-08-23 05:42:00,70.4,66.3,29.96,SSE,166,0.0,0.0,87,0.00,CLR,,0.00,0.0,WeatherDisplay:10.37,2013-08-23 03:42:00,
2013-08-23 05:52:00,70.1,66.0,29.96,SSE,163,2.0,4.0,87,0.00,CLR,,0.00,0.0,WeatherDisplay:10.37,2013-08-23 03:52:00,
2013-08-23 06:02:00,69.9,65.8,29.96,SSE,162,0.0,2.0,87,0.00,OVC,,0.00,0.0,WeatherDisplay:10.37,2013-08-23 04:02:00,
2013-08-23 06:12:00,69.8,65.8,29.96,SSE,162,0.0,0.0,87,0.00,OVC,,0.00,0.0,WeatherDisplay:10.37,2013-08-23 04:12:00,
2013-08-23 06:22:00,69.6,65.6,29.96,SSE,162,0.0,0.0,87,0.00,OVC,,0.00,0.0,WeatherDisplay:10.37,2013-08-23 04:22:00,
2013-08-23 06:32:00,69.8,65.8,29.96,SSE,162,2.0,4.0,87,0.00,OVC,,0.00,9.0,WeatherDisplay:10.37,2013-08-23 04:32:00,
2013-08-23 06:42:00,70.6,66.5,29.96,SSE,162,0.0,3.0,87,0.00,BKN,,0.00,18.0,WeatherDisplay:10.37,2013-08-23 04:42:00,
2013-08-23 06:52:00,70.1,66.0,29.96,SSE,162,0.0,0.0,87,0.00,BKN,,0.00,28.0,WeatherDisplay:10.37,2013-08-23 04:52:00,
2013-08-23 07:02:00,69.9,65.9,29.96,SSE,162,0.0,0.0,87,0.00,BKN,,0.00,42.0,WeatherDisplay:10.37,2013-08-23 05:02:00,
2013-08-23 07:12:00,70.3,66.2,29.97,SSE,162,0.0,0.0,87,0.00,BKN,,0.00,62.0,WeatherDisplay:10.37,2013-08-23 05:12:00,
2013-08-23 07:22:00,71.0,67.0,29.97,SE,132,0.0,0.0,87,0.00,BKN,,0.00,79.0,WeatherDisplay:10.37,2013-08-23 05:22:00,
2013-08-23 07:32:00,71.6,67.5,29.97,ESE,103,0.0,0.0,87,0.00,BKN,,0.00,98.0,WeatherDisplay:10.37,2013-08-23 05:32:00,
2013-08-23 07:42:00,72.2,68.1,29.97,SSE,150,0.0,0.0,87,0.00,BKN,,0.00,123.0,WeatherDisplay:10.37,2013-08-23 05:42:00,
2013-08-23 07:52:00,73.2,68.8,29.97,SSE,162,0.0,0.0,86,0.00,BKN,,0.00,142.0,WeatherDisplay:10.37,2013-08-23 05:52:00,
2013-08-23 08:02:00,72.8,68.0,29.97,SSE,162,0.0,0.0,85,0.00,BKN,,0.00,167.0,WeatherDisplay:10.37,2013-08-23 06:02:00,
2013-08-23 08:12:00,73.5,68.7,29.97,SSE,162,0.0,0.0,85,0.00,BKN,,0.00,197.0,WeatherDisplay:10.37,2013-08-23 06:12:00,
2013-08-23 08:22:00,74.1,68.9,29.97,SSE,162,0.0,0.0,84,0.00,BKN,,0.00,221.0,WeatherDisplay:10.37,2013-08-23 06:22:00,
2013-08-23 08:32:00,75.1,69.6,29.97,SSE,162,0.0,0.0,83,0.00,BKN,,0.00,155.0,WeatherDisplay:10.37,2013-08-23 06:32:00,
2013-08-23 08:42:00,75.9,70.0,29.97,SSE,162,0.0,0.0,82,0.00,BKN,,0.00,281.0,WeatherDisplay:10.37,2013-08-23 06:42:00,
2013-08-23 08:52:00,76.7,69.7,29.97,SSE,160,0.0,0.0,79,0.00,BKN,,0.00,304.0,WeatherDisplay:10.37,2013-08-23 06:52:00,
2013-08-23 09:02:00,77.4,69.6,29.97,SE,142,0.0,0.0,77,0.00,SCT,,0.00,346.0,WeatherDisplay:10.37,2013-08-23 07:02:00,
2013-08-23 09:12:00,78.3,69.7,29.97,NNE,18,0.0,0.0,75,0.00,SCT,,0.00,380.0,WeatherDisplay:10.37,2013-08-23 07:12:00,
2013-08-23 09:22:00,79.4,70.4,29.98,NE,41,0.0,0.0,74,0.00,SCT,,0.00,427.0,WeatherDisplay:10.37,2013-08-23 07:22:00,
2013-08-23 09:32:00,79.9,70.0,29.98,NNW,331,0.0,0.0,72,0.00,SCT,,0.00,457.0,WeatherDisplay:10.37,2013-08-23 07:32:00,
2013-08-23 09:42:00,79.9,69.7,29.98,NNW,344,0.0,0.0,71,0.00,SCT,,0.00,427.0,WeatherDisplay:10.37,2013-08-23 07:42:00,
2013-08-23 09:52:00,80.3,69.2,29.98,NNE,23,1.0,7.0,69,0.00,SCT,,0.00,345.0,WeatherDisplay:10.37,2013-08-23 07:52:00,
2013-08-23 10:02:00,80.9,69.3,29.98,NNW,328,0.0,5.0,68,0.00,SCT,,0.00,555.0,WeatherDisplay:10.37,2013-08-23 08:02:00,
2013-08-23 10:12:00,81.6,69.6,29.98,WNW,293,0.0,5.0,67,0.00,SCT,,0.00,570.0,WeatherDisplay:10.37,2013-08-23 08:12:00,
2013-08-23 10:22:00,81.8,69.3,29.98,NNW,331,0.0,3.0,66,0.00,SCT,,0.00,612.0,WeatherDisplay:10.37,2013-08-23 08:22:00,
2013-08-23 10:32:00,82.4,69.4,29.98,WNW,298,0.0,6.0,65,0.00,SCT,,0.00,605.0,WeatherDisplay:10.37,2013-08-23 08:32:00,
2013-08-23 10:42:00,82.4,68.5,29.98,NNE,32,0.0,4.0,63,0.00,SCT,,0.00,626.0,WeatherDisplay:10.37,2013-08-23 08:42:00,
2013-08-23 10:52:00,82.8,68.4,29.98,NW,319,5.0,7.0,62,0.00,SCT,,0.00,654.0,WeatherDisplay:10.37,2013-08-23 08:52:00,
2013-08-23 11:02:00,83.0,69.1,29.98,NW,317,0.0,5.0,63,0.00,SCT,,0.00,686.0,WeatherDisplay:10.37,2013-08-23 09:02:00,
2013-08-23 11:12:00,83.9,68.6,29.98,ESE,105,0.0,5.0,60,0.00,FEW,,0.00,708.0,WeatherDisplay:10.37,2013-08-23 09:12:00,
2013-08-23 11:22:00,84.3,68.9,29.98,North,4,0.0,3.0,60,0.00,FEW,,0.00,733.0,WeatherDisplay:10.37,2013-08-23 09:22:00,
2013-08-23 11:32:00,84.5,69.1,29.98,NNW,347,1.0,7.0,60,0.00,FEW,,0.00,756.0,WeatherDisplay:10.37,2013-08-23 09:32:00,
2013-08-23 11:42:00,84.7,69.8,29.98,NW,319,0.0,1.0,61,0.00,FEW,,0.00,770.0,WeatherDisplay:10.37,2013-08-23 09:42:00,
2013-08-23 11:52:00,83.8,69.4,29.98,NW,309,0.0,9.0,62,0.00,FEW,,0.00,779.0,WeatherDisplay:10.37,2013-08-23 09:52:00,
2013-08-23 12:02:00,84.1,69.7,29.98,NW,313,0.0,9.0,62,0.00,FEW,,0.00,773.0,WeatherDisplay:10.37,2013-08-23 10:02:00,
2013-08-23 12:12:00,83.2,69.8,29.98,NW,315,0.0,13.0,64,0.00,FEW,,0.00,784.0,WeatherDisplay:10.37,2013-08-23 10:12:00,
2013-08-23 12:22:00,83.7,69.3,29.98,NW,312,1.0,10.0,62,0.00,FEW,,0.00,791.0,WeatherDisplay:10.37,2013-08-23 10:22:00,
2013-08-23 12:32:00,84.7,69.8,29.98,NNW,328,0.0,7.0,61,0.00,FEW,,0.00,791.0,WeatherDisplay:10.37,2013-08-23 10:32:00,
2013-08-23 12:42:00,84.9,69.5,29.98,NNW,344,0.0,6.0,60,0.00,FEW,,0.00,810.0,WeatherDisplay:10.37,2013-08-23 10:42:00,
2013-08-23 12:52:00,85.1,69.7,29.98,NNW,330,3.0,8.0,60,0.00,CLR,,0.00,816.0,WeatherDisplay:10.37,2013-08-23 10:52:00,
2013-08-23 13:02:00,84.3,68.9,29.98,NNW,337,1.0,10.0,60,0.00,CLR,,0.00,823.0,WeatherDisplay:10.37,2013-08-23 11:02:00,
2013-08-23 13:12:00,84.6,69.2,29.98,NW,314,2.0,10.0,60,0.00,CLR,,0.00,819.0,WeatherDisplay:10.37,2013-08-23 11:12:00,
2013-08-23 13:22:00,84.9,68.5,29.98,NW,311,1.0,8.0,58,0.00,CLR,,0.00,821.0,WeatherDisplay:10.37,2013-08-23 11:22:00,
2013-08-23 13:32:00,85.2,69.2,29.98,NW,305,6.0,12.0,59,0.00,CLR,,0.00,819.0,WeatherDisplay:10.37,2013-08-23 11:32:00,
2013-08-23 13:42:00,84.5,69.1,29.98,West,267,3.0,12.0,60,0.00,CLR,,0.00,805.0,WeatherDisplay:10.37,2013-08-23 11:42:00,
2013-08-23 13:52:00,84.5,68.1,29.97,WNW,297,8.0,13.0,58,0.00,CLR,,0.00,758.0,WeatherDisplay:10.37,2013-08-23 11:52:00,
2013-08-23 14:02:00,84.7,67.8,29.97,West,270,7.0,14.0,57,0.00,CLR,,0.00,805.0,WeatherDisplay:10.37,2013-08-23 12:02:00,
2013-08-23 14:12:00,84.5,66.0,29.97,West,263,6.0,13.0,54,0.00,CLR,,0.00,802.0,WeatherDisplay:10.37,2013-08-23 12:12:00,
2013-08-23 14:22:00,84.5,64.4,29.97,WNW,292,5.0,10.0,51,0.00,CLR,,0.00,793.0,WeatherDisplay:10.37,2013-08-23 12:22:00,
2013-08-23 14:32:00,84.7,64.0,29.97,West,279,3.0,12.0,50,0.00,CLR,,0.00,786.0,WeatherDisplay:10.37,2013-08-23 12:32:00,
2013-08-23 14:42:00,85.1,64.4,29.97,WNW,288,6.0,10.0,50,0.00,CLR,,0.00,784.0,WeatherDisplay:10.37,2013-08-23 12:42:00,
2013-08-23 14:52:00,84.8,64.6,29.96,WNW,282,3.0,12.0,51,0.00,CLR,,0.00,745.0,WeatherDisplay:10.37,2013-08-23 12:52:00,
2013-08-23 15:02:00,84.5,58.2,29.97,West,262,5.0,10.0,41,0.00,CLR,,0.00,770.0,WeatherDisplay:10.37,2013-08-23 13:02:00,
2013-08-23 15:12:00,85.3,60.3,29.96,WNW,299,5.0,12.0,43,0.00,CLR,,0.00,731.0,WeatherDisplay:10.37,2013-08-23 13:12:00,
2013-08-23 15:22:00,84.9,59.2,29.96,West,278,3.0,16.0,42,0.00,CLR,,0.00,731.0,WeatherDisplay:10.37,2013-08-23 13:22:00,
2013-08-23 15:32:00,85.1,58.1,29.96,West,277,2.0,10.0,40,0.00,CLR,,0.00,710.0,WeatherDisplay:10.37,2013-08-23 13:32:00,
2013-08-23 15:42:00,85.3,59.6,29.96,West,268,5.0,12.0,42,0.00,CLR,,0.00,682.0,WeatherDisplay:10.37,2013-08-23 13:42:00,
2013-08-23 15:52:00,85.2,58.8,29.96,West,278,6.0,12.0,41,0.00,CLR,,0.00,666.0,WeatherDisplay:10.37,2013-08-23 13:52:00,
2013-08-23 16:02:00,84.9,60.6,29.96,West,274,5.0,12.0,44,0.00,CLR,,0.00,643.0,WeatherDisplay:10.37,2013-08-23 14:02:00,
2013-08-23 16:12:00,84.7,61.6,29.96,West,274,3.0,12.0,46,0.00,CLR,,0.00,612.0,WeatherDisplay:10.37,2013-08-23 14:12:00,
2013-08-23 16:22:00,84.1,62.3,29.96,WNW,293,1.0,12.0,48,0.00,CLR,,0.00,585.0,WeatherDisplay:10.37,2013-08-23 14:22:00,
2013-08-23 16:32:00,83.9,62.7,29.96,West,267,6.0,14.0,49,0.00,CLR,,0.00,559.0,WeatherDisplay:10.37,2013-08-23 14:32:00,
2013-08-23 16:42:00,83.4,65.0,29.96,WNW,287,5.0,12.0,54,0.00,CLR,,0.00,522.0,WeatherDisplay:10.37,2013-08-23 14:42:00,
2013-08-23 16:52:00,82.8,66.0,29.96,WNW,295,6.0,13.0,57,0.00,CLR,,0.00,490.0,WeatherDisplay:10.37,2013-08-23 14:52:00,
2013-08-23 17:02:00,82.6,66.3,29.96,WNW,290,5.0,10.0,58,0.00,CLR,,0.00,464.0,WeatherDisplay:10.37,2013-08-23 15:02:00,
2013-08-23 17:12:00,82.1,65.9,29.96,WNW,300,7.0,13.0,58,0.00,CLR,,0.00,436.0,WeatherDisplay:10.37,2013-08-23 15:12:00,
2013-08-23 17:22:00,82.0,65.8,29.96,West,274,5.0,13.0,58,0.00,CLR,,0.00,388.0,WeatherDisplay:10.37,2013-08-23 15:22:00,
2013-08-23 17:32:00,81.6,67.3,29.96,WNW,292,3.0,12.0,62,0.00,CLR,,0.00,376.0,WeatherDisplay:10.37,2013-08-23 15:32:00,
2013-08-23 17:42:00,81.0,67.2,29.96,WNW,294,6.0,10.0,63,0.00,CLR,,0.00,336.0,WeatherDisplay:10.37,2013-08-23 15:42:00,
2013-08-23 17:52:00,80.9,67.6,29.96,NW,304,5.0,9.0,64,0.00,CLR,,0.00,315.0,WeatherDisplay:10.37,2013-08-23 15:52:00,
2013-08-23 18:02:00,81.0,65.8,29.96,NW,304,3.0,9.0,60,0.00,CLR,,0.00,283.0,WeatherDisplay:10.37,2013-08-23 16:02:00,
2013-08-23 18:12:00,80.9,65.2,29.96,WNW,295,5.0,10.0,59,0.00,CLR,,0.00,255.0,WeatherDisplay:10.37,2013-08-23 16:12:00,
2013-08-23 18:22:00,80.7,65.0,29.96,WNW,298,5.0,10.0,59,0.00,CLR,,0.00,218.0,WeatherDisplay:10.37,2013-08-23 16:22:00,
2013-08-23 18:32:00,80.5,66.3,29.96,NW,306,1.0,7.0,62,0.00,CLR,,0.00,185.0,WeatherDisplay:10.37,2013-08-23 16:32:00,
2013-08-23 18:42:00,80.5,67.2,29.95,WNW,282,3.0,7.0,64,0.00,CLR,,0.00,158.0,WeatherDisplay:10.37,2013-08-23 16:42:00,
2013-08-23 18:52:00,80.1,67.3,29.95,WNW,284,3.0,9.0,65,0.00,CLR,,0.00,130.0,WeatherDisplay:10.37,2013-08-23 16:52:00,
2013-08-23 19:02:00,79.8,67.4,29.95,West,277,2.0,8.0,66,0.00,OVC,,0.00,98.0,WeatherDisplay:10.37,2013-08-23 17:02:00,
2013-08-23 19:12:00,79.6,67.7,29.95,West,269,0.0,4.0,67,0.00,OVC,,0.00,60.0,WeatherDisplay:10.37,2013-08-23 17:12:00,
2013-08-23 19:22:00,79.4,67.9,29.95,West,263,0.0,4.0,68,0.00,OVC,,0.00,44.0,WeatherDisplay:10.37,2013-08-23 17:22:00,
2013-08-23 19:32:00,78.8,68.2,29.96,WNW,288,1.0,5.0,70,0.00,OVC,,0.00,12.0,WeatherDisplay:10.37,2013-08-23 17:32:00,
2013-08-23 19:42:00,77.9,67.7,29.96,West,275,0.0,2.0,71,0.00,OVC,,0.00,5.0,WeatherDisplay:10.37,2013-08-23 17:42:00,
2013-08-23 19:50:00,77.4,67.7,29.96,West,274,0.0,0.0,72,0.00,OVC,,0.00,0.0,WeatherDisplay:10.37,2013-08-23 17:50:00,
2013-08-23 20:00:00,76.7,67.4,29.96,West,274,0.0,0.0,73,0.00,CLR,,0.00,0.0,WeatherDisplay:10.37,2013-08-23 18:00:00,
2013-08-23 20:10:00,76.3,67.4,29.96,West,274,0.0,0.0,74,0.00,CLR,,0.00,0.0,WeatherDisplay:10.37,2013-08-23 18:10:00,
2013-08-23 20:20:00,75.8,67.3,29.97,West,274,0.0,0.0,75,0.00,CLR,,0.00,0.0,WeatherDisplay:10.37,2013-08-23 18:20:00,
2013-08-23 20:30:00,75.3,67.6,29.97,West,274,0.0,0.0,77,0.00,CLR,,0.00,0.0,WeatherDisplay:10.37,2013-08-23 18:30:00,
2013-08-23 20:39:00,75.3,67.6,29.97,West,274,0.0,0.0,77,0.00,CLR,,0.00,0.0,WeatherDisplay:10.37,2013-08-23 18:39:00,
2013-08-23 20:49:00,74.9,67.2,29.97,West,274,0.0,0.0,77,0.00,CLR,,0.00,0.0,WeatherDisplay:10.37,2013-08-23 18:49:00,
2013-08-23 20:59:00,74.4,67.1,29.98,West,274,0.0,0.0,78,0.00,CLR,,0.00,0.0,WeatherDisplay:10.37,2013-08-23 18:59:00,
2013-08-23 21:09:00,74.6,67.7,29.98,West,272,0.0,0.0,79,0.00,CLR,,0.00,0.0,WeatherDisplay:10.37,2013-08-23 19:09:00,
2013-08-23 21:19:00,74.4,67.5,29.98,West,271,0.0,0.0,79,0.00,CLR,,0.00,0.0,WeatherDisplay:10.37,2013-08-23 19:19:00,
2013-08-23 21:29:00,74.4,67.5,29.98,West,265,0.0,0.0,79,0.00,CLR,,0.00,0.0,WeatherDisplay:10.37,2013-08-23 19:29:00,
2013-08-23 21:39:00,74.2,67.3,29.98,WSW,256,0.0,2.0,79,0.00,CLR,,0.00,0.0,WeatherDisplay:10.37,2013-08-23 19:39:00,
2013-08-23 21:49:00,73.9,67.3,29.98,WSW,253,0.0,2.0,80,0.00,CLR,,0.00,0.0,WeatherDisplay:10.37,2013-08-23 19:49:00,
2013-08-23 21:59:00,73.9,67.3,29.98,SW,215,3.0,5.0,80,0.00,CLR,,0.00,0.0,WeatherDisplay:10.37,2013-08-23 19:59:00,
2013-08-23 22:09:00,73.9,67.3,29.98,SSE,167,2.0,5.0,80,0.00,CLR,,0.00,0.0,WeatherDisplay:10.37,2013-08-23 20:09:00,
2013-08-23 22:19:00,73.7,67.1,29.98,SSE,168,5.0,6.0,80,0.00,CLR,,0.00,0.0,WeatherDisplay:10.37,2013-08-23 20:19:00,
2013-08-23 22:29:00,73.4,67.3,29.99,South,169,3.0,6.0,81,0.00,CLR,,0.00,0.0,WeatherDisplay:10.37,2013-08-23 20:29:00,
2013-08-23 22:39:00,73.3,67.1,29.99,South,174,0.0,5.0,81,0.00,CLR,,0.00,0.0,WeatherDisplay:10.37,2013-08-23 20:39:00,
2013-08-23 22:49:00,73.0,66.8,29.99,South,171,1.0,4.0,81,0.00,CLR,,0.00,0.0,WeatherDisplay:10.37,2013-08-23 20:49:00,
2013-08-23 22:59:00,72.7,66.9,29.99,South,170,0.0,0.0,82,0.00,CLR,,0.00,0.0,WeatherDisplay:10.37,2013-08-23 20:59:00,
2013-08-23 23:09:00,72.3,66.8,29.99,South,170,0.0,1.0,83,0.00,CLR,,0.00,0.0,WeatherDisplay:10.37,2013-08-23 21:09:00,
2013-08-23 23:19:00,72.3,66.8,29.99,SSE,165,0.0,2.0,83,0.00,CLR,,0.00,0.0,WeatherDisplay:10.37,2013-08-23 21:19:00,
2013-08-23 23:29:00,72.3,66.8,29.99,SSE,162,0.0,0.0,83,0.00,CLR,,0.00,0.0,WeatherDisplay:10.37,2013-08-23 21:29:00,
2013-08-23 23:39:00,72.5,67.0,30.00,SSE,156,3.0,5.0,83,0.00,CLR,,0.00,0.0,WeatherDisplay:10.37,2013-08-23 21:39:00,
2013-08-23 23:49:00,73.0,67.5,29.99,SSE,158,5.0,7.0,83,0.00,CLR,,0.00,0.0,WeatherDisplay:10.37,2013-08-23 21:49:00,
2013-08-23 23:59:00,72.8,67.0,30.00,SSE,165,2.0,5.0,82,0.00,CLR,,0.00,0.0,WeatherDisplay:10.37,2013-08-23 21:59:00,